Wilmington, OH

7:56 AM EST on February 12, 2016 (GMT -0500)
Airborne

Weather History for KILN - October, 2013

Change the Weather History Date:

Tuesday, October 15, 2013

  Actual Average (KDAY) Record (KDAY)
Temperature  
Mean Temperature 60 °F 54 °F  
Max Temperature 73 °F 64 °F 91 °F (1899)
Min Temperature 48 °F 44 °F 28 °F (1939)
Degree Days  
Heating Degree Days 5 11  
Month to date heating degree days 138  
Since 1 July heating degree days 228  
Cooling Degree Days 0 0  
Month to date cooling degree days 10  
Year to date cooling degree days 891  
Growing Degree Days 10 (Base 50)    
Moisture  
Dew Point 56 °F    
Average Humidity 93    
Maximum Humidity 100    
Minimum Humidity 68    
Precipitation  
Precipitation 0.00 in 0.10 in 1.16 in (1943)
Month to date precipitation 1.46  
Year to date precipitation 33.07  
Snow  
Snow 0.00 in 0.00 in - ()
Month to date snowfall 0.0  
Since 1 July snowfall 0.0  
Since 1 September snowfall 0.0  
Snow Depth -    
Sea Level Pressure  
Sea Level Pressure 30.10 in    
Wind  
Wind Speed 5 mph (SE)    
Max Wind Speed 12 mph    
Max Gust Speed -    
Visibility 4 miles    
Events Fog , Rain    
T = Trace of Precipitation, MM = Missing Value Source: NWS Daily Summary

Daily Weather History Graph

Daily Weather History Graph

Search for Another Location

Airport or City:

Trip Planner

Search our weather history database for the weather conditions in past years. The results will help you decide how hot, cold, wet, or windy it might be!

Date:

Astronomy

Oct. 15, 2013 Rise Set
Actual Time 7:45 AM EDT 6:55 PM EDT
Civil Twilight 7:18 AM EDT 7:22 PM EDT
Nautical Twilight 6:47 AM EDT 7:53 PM EDT
Astronomical Twilight 6:15 AM EDT 8:24 PM EDT
Moon 4:59 PM EDT (10/15) 4:07 AM EDT (10/15)
Length of Visible Light 12h 04m
Length of Day
11h 10m
Waxing Gibbous, 87% of the Moon is Illuminated
Oct 15
Waxing Gibbous
Oct 18
Full
Oct 26
Last Quarter
Nov 3
New
Nov 10
First Quarter

Hourly Weather History & Observations

Time (EDT) Temp. Dew Point Humidity Pressure Visibility Wind Dir Wind Speed Gust Speed Precip Events Conditions
12:54 AM 50.0 °F 48.9 °F 96% 30.21 in 4.0 mi NE 4.6 mph - N/A   Clear
1:54 AM 52.0 °F 51.1 °F 97% 30.19 in 5.0 mi ENE 5.8 mph - N/A   Clear
2:54 AM 52.0 °F 51.1 °F 97% 30.17 in 4.0 mi East 3.5 mph - N/A   Clear
3:46 AM 51.8 °F 51.8 °F 100% 30.15 in 2.5 mi East 6.9 mph - N/A   Partly Cloudy
3:54 AM 52.0 °F 51.1 °F 97% 30.16 in 1.2 mi East 4.6 mph - N/A   Scattered Clouds
4:00 AM 51.8 °F 51.8 °F 100% 30.15 in 0.8 mi East 4.6 mph - N/A   Mist
4:11 AM 51.8 °F 51.8 °F 100% 30.15 in 1.2 mi East 3.5 mph - N/A   Scattered Clouds
4:18 AM 51.8 °F 50.0 °F 94% 30.15 in 0.8 mi Calm Calm - N/A   Mist
4:32 AM 50.0 °F 48.2 °F 94% 30.15 in 0.2 mi Calm Calm - N/A Fog Fog
4:49 AM 48.2 °F 48.2 °F 100% 30.15 in 0.5 mi ESE 4.6 mph - N/A Fog Fog
4:54 AM 50.0 °F 48.9 °F 96% 30.16 in 0.8 mi East 4.6 mph - N/A   Mist
5:28 AM 51.8 °F 51.8 °F 100% 30.14 in 0.5 mi East 4.6 mph - N/A Fog Fog
5:54 AM 51.1 °F 51.1 °F 100% 30.14 in 0.5 mi East 6.9 mph - N/A Fog Fog
6:24 AM 51.8 °F 51.8 °F 100% 30.13 in 0.2 mi ESE 3.5 mph - N/A Fog Fog
6:37 AM 51.8 °F 51.8 °F 100% 30.13 in 0.5 mi ESE 5.8 mph - N/A Fog Fog
6:54 AM 51.1 °F 51.1 °F 100% 30.14 in 0.5 mi ESE 4.6 mph - N/A Fog Fog
7:35 AM 51.8 °F 51.8 °F 100% 30.11 in 0.2 mi SE 3.5 mph - N/A Fog Fog
7:47 AM 53.6 °F 53.6 °F 100% 30.12 in 0.2 mi SE 3.5 mph - N/A Fog Fog
7:54 AM 53.1 °F 53.1 °F 100% 30.13 in 0.8 mi SE 3.5 mph - N/A   Overcast
8:02 AM 53.6 °F 53.6 °F 100% 30.12 in 2.0 mi SE 3.5 mph - N/A   Overcast
8:13 AM 53.6 °F 53.6 °F 100% 30.11 in 2.0 mi ESE 4.6 mph - N/A   Overcast
8:29 AM 55.4 °F 55.4 °F 100% 30.11 in 2.0 mi SE 4.6 mph - N/A   Overcast
8:37 AM 55.4 °F 55.4 °F 100% 30.11 in 1.5 mi SE 4.6 mph - N/A   Overcast
8:50 AM 55.4 °F 55.4 °F 100% 30.11 in 0.5 mi SE 5.8 mph - N/A Fog Fog
8:54 AM 55.9 °F 55.9 °F 100% 30.13 in 0.5 mi SE 5.8 mph - N/A Fog Fog
9:02 AM 57.2 °F 57.2 °F 100% 30.11 in 0.2 mi SSE 5.8 mph - N/A Fog Fog
9:44 AM 57.2 °F 57.2 °F 100% 30.11 in 0.5 mi SSE 6.9 mph - N/A Fog Fog
9:54 AM 57.9 °F 57.9 °F 100% 30.12 in 0.2 mi SSE 8.1 mph - N/A Fog Fog
10:10 AM 57.2 °F 57.2 °F 100% 30.11 in 0.5 mi SSE 6.9 mph - N/A Fog Fog
10:26 AM 59.0 °F 57.2 °F 94% 30.11 in 1.0 mi SSE 8.1 mph - N/A   Overcast
10:46 AM 59.0 °F 59.0 °F 100% 30.11 in 2.5 mi SSE 9.2 mph - N/A   Overcast
10:54 AM 59.0 °F 59.0 °F 100% 30.12 in 2.5 mi South 9.2 mph - N/A   Overcast
11:24 AM 60.8 °F 59.0 °F 94% 30.11 in 3.0 mi South 10.4 mph - N/A   Overcast
11:54 AM 63.0 °F 61.0 °F 93% 30.09 in 5.0 mi South 10.4 mph - N/A   Overcast
12:44 PM 64.4 °F 60.8 °F 88% 30.09 in 8.0 mi South 10.4 mph - N/A   Overcast
12:54 PM 66.0 °F 61.0 °F 84% 30.09 in 8.0 mi SSW 9.2 mph - N/A   Mostly Cloudy
1:54 PM 70.0 °F 62.1 °F 76% 30.05 in 10.0 mi SSW 9.2 mph - N/A   Scattered Clouds
2:54 PM 72.0 °F 62.1 °F 71% 30.02 in 10.0 mi SSW 10.4 mph - N/A   Partly Cloudy
3:54 PM 72.0 °F 61.0 °F 68% 30.01 in 10.0 mi SSW 10.4 mph - N/A   Partly Cloudy
4:54 PM 71.1 °F 61.0 °F 70% 30.01 in 10.0 mi SW 9.2 mph - N/A   Mostly Cloudy
5:54 PM 70.0 °F 60.1 °F 71% 29.99 in 10.0 mi South 11.5 mph - N/A   Clear
6:54 PM 66.9 °F 60.1 °F 79% 29.99 in 10.0 mi South 5.8 mph - N/A   Scattered Clouds
7:54 PM 66.9 °F 60.1 °F 79% 29.98 in 10.0 mi South 5.8 mph - 0.00 in   Overcast
8:54 PM 64.9 °F 60.1 °F 84% 29.98 in 10.0 mi South 5.8 mph - 0.00 in Rain Light Rain
9:54 PM 64.0 °F 60.1 °F 87% 29.98 in 10.0 mi SSW 4.6 mph - 0.00 in   Mostly Cloudy
10:54 PM 64.0 °F 60.1 °F 87% 29.99 in 10.0 mi SSW 6.9 mph - N/A   Overcast
11:54 PM 64.0 °F 60.1 °F 87% 29.97 in 10.0 mi South 6.9 mph - N/A   Mostly Cloudy